| time (UTC) | temp C | wind direction | speed KPH | gust KPH | rain 1hr cm | rain 24hr cm | rain mn cm | humidity % | barometer mb |
| 20260504044532 | 10 | 243 | 3.2 | 9.7 | 0.00 | 0.00 | 0.00 | 55 | 1009.8 |
| 20260504043030 | 10 | 155 | 0.0 | 9.7 | 0.00 | 0.00 | 0.00 | 55 | 1009.8 |
| 20260504041526 | 10 | 240 | 1.6 | 6.4 | 0.00 | 0.00 | 0.00 | 56 | 1009.8 |
| 20260504040024 | 11 | 176 | 1.6 | 9.7 | 0.00 | 0.00 | 0.00 | 55 | 1009.8 |
| 20260504034524 | 11 | 173 | 1.6 | 8.0 | 0.00 | 0.00 | 0.00 | 55 | 1009.9 |
| 20260504033022 | 11 | 219 | 1.6 | 6.4 | 0.00 | 0.00 | 0.00 | 56 | 1010.0 |
| 20260504031522 | 11 | 226 | 0.0 | 4.8 | 0.00 | 0.00 | 0.00 | 56 | 1010.1 |
| 20260504030021 | 11 | 264 | 4.8 | 9.7 | 0.00 | 0.00 | 0.00 | 55 | 1010.2 |
| 20260504024521 | 11 | 276 | 3.2 | 8.0 | 0.00 | 0.00 | 0.00 | 56 | 1010.2 |
| 20260504023021 | 10 | 266 | 1.6 | 8.0 | 0.00 | 0.00 | 0.00 | 57 | 1010.3 |
| 20260504021519 | 10 | 270 | 6.4 | 12.9 | 0.00 | 0.00 | 0.00 | 58 | 1010.6 |
| 20260504020023 | 10 | 338 | 3.2 | 9.7 | 0.00 | 0.00 | 0.00 | 61 | 1010.9 |
| 20260504014537 | 10 | 310 | 3.2 | 27.4 | 0.00 | 0.00 | 0.00 | 63 | 1010.9 |
| 20260504013018 | 11 | 349 | 4.8 | 11.3 | 0.00 | 0.00 | 0.00 | 52 | 1011.1 |
| 20260504011517 | 11 | 321 | 4.8 | 22.5 | 0.00 | 0.00 | 0.00 | 50 | 1010.7 |
| 20260504010016 | 11 | 335 | 4.8 | 19.3 | 0.00 | 0.00 | 0.00 | 49 | 1010.4 |
| 20260504004517 | 12 | 281 | 6.4 | 24.1 | 0.00 | 0.00 | 0.00 | 48 | 1010.7 |
| 20260504003015 | 12 | 282 | 12.9 | 33.8 | 0.00 | 0.00 | 0.00 | 46 | 1010.3 |
| 20260504001516 | 12 | 255 | 1.6 | 17.7 | 0.00 | 0.00 | 0.00 | 46 | 1010.1 |
| 20260504000032 | 12 | 283 | 4.8 | 19.3 | 0.00 | 0.00 | 0.00 | 45 | 1009.8 |
| 20260503234512 | 12 | 259 | 3.2 | 22.5 | 0.00 | 0.00 | 0.00 | 44 | 1009.7 |
| 20260503233011 | 12 | 231 | 3.2 | 25.7 | 0.00 | 0.00 | 0.00 | 44 | 1009.9 |
| 20260503231511 | 12 | 349 | 6.4 | 12.9 | 0.00 | 0.00 | 0.00 | 46 | 1010.2 |
| 20260503230009 | 12 | 307 | 3.2 | 12.9 | 0.00 | 0.00 | 0.00 | 46 | 1010.3 |
| 20260503224509 | 12 | 193 | 1.6 | 8.0 | 0.00 | 0.00 | 0.00 | 46 | 1010.1 |
| 20260503223008 | 12 | 269 | 1.6 | 9.7 | 0.00 | 0.00 | 0.00 | 45 | 1010.0 |
| 20260503221508 | 12 | 259 | 4.8 | 12.9 | 0.00 | 0.00 | 0.00 | 43 | 1009.9 |
| 20260503220007 | 12 | 276 | 8.0 | 17.7 | 0.00 | 0.00 | 0.00 | 41 | 1009.9 |
| 20260503214521 | 12 | 330 | 4.8 | 20.9 | 0.00 | 0.00 | 0.00 | 42 | 1010.0 |
| 20260503213002 | 12 | 333 | 1.6 | 8.0 | 0.00 | 0.00 | 0.00 | 43 | 1010.1 |
| 20260503211600 | 12 | 216 | 8.0 | 17.7 | 0.00 | 0.00 | 0.00 | 43 | 1010.2 |
| 20260503210100 | 12 | 293 | 6.4 | 12.9 | 0.00 | 0.00 | 0.00 | 42 | 1010.2 |
| 20260503204608 | 12 | 280 | 3.2 | 20.9 | 0.00 | 0.00 | 0.00 | 43 | 1010.3 |
| 20260503203101 | 11 | 339 | 4.8 | 24.1 | 0.00 | 0.00 | 0.00 | 43 | 1010.6 |
| 20260503201555 | 11 | 264 | 4.8 | 16.1 | 0.00 | 0.00 | 0.00 | 45 | 1010.8 |
| 20260503200052 | 11 | 302 | 4.8 | 17.7 | 0.00 | 0.00 | 0.00 | 46 | 1010.9 |
| 20260503194606 | 11 | 328 | 6.4 | 17.7 | 0.00 | 0.00 | 0.00 | 47 | 1011.0 |
| 20260503193047 | 11 | 311 | 4.8 | 19.3 | 0.00 | 0.00 | 0.00 | 45 | 1011.2 |
| 20260503191546 | 11 | 309 | 4.8 | 19.3 | 0.00 | 0.00 | 0.00 | 47 | 1011.3 |
| 20260503190056 | 11 | 329 | 1.6 | 19.3 | 0.00 | 0.00 | 0.00 | 44 | 1011.4 |
| 20260503184543 | 11 | 345 | 6.4 | 17.7 | 0.00 | 0.00 | 0.00 | 43 | 1011.3 |
| 20260503183045 | 10 | 307 | 4.8 | 17.7 | 0.00 | 0.00 | 0.00 | 44 | 1011.5 |
| 20260503181539 | 11 | 263 | 4.8 | 14.5 | 0.00 | 0.00 | 0.00 | 43 | 1011.9 |
| 20260503180038 | 11 | 287 | 6.4 | 16.1 | 0.00 | 0.00 | 0.00 | 43 | 1011.9 |
| 20260503174535 | 11 | 266 | 6.4 | 16.1 | 0.00 | 0.00 | 0.00 | 43 | 1012.1 |
| 20260503173051 | 10 | 228 | 4.8 | 16.1 | 0.00 | 0.00 | 0.00 | 43 | 1012.4 |
| 20260503171529 | 10 | 352 | 4.8 | 16.1 | 0.00 | 0.00 | 0.00 | 44 | 1012.5 |
| 20260503081506 | 2 | 283 | 0.0 | 3.2 | 0.00 | 0.00 | 0.00 | 81 | 1013.9 |